This is the latest recevied weather packets stored in our database for station/object KB9PMA-1. If no packets are shown the sender has not sent any weather packets the latest 1 day(s).
| Time | Temp. | Humidity | Pressure | Rain* | Wind** | Luminosity | Snow |
|---|---|---|---|---|---|---|---|
| 1778044975 | 6.67° C | 95% | 1011.6 hPa | 1.02 mm | 0 m/s | - | - |
| 1778044675 | 6.67° C | 95% | 1011.4 hPa | 1.27 mm | 0 m/s | - | - |
| 1778044375 | 6.67° C | 95% | 1011.5 hPa | 1.52 mm | 0 m/s | - | - |
| 1778044075 | 6.67° C | 95% | 1011.6 hPa | 1.78 mm | 0 m/s | - | - |
| 1778043775 | 6.67° C | 95% | 1011.6 hPa | 2.03 mm | 0 m/s | - | - |
| 1778043475 | 6.67° C | 95% | 1011.8 hPa | 2.03 mm | 0 m/s | - | - |
| 1778043175 | 7.22° C | 95% | 1011.9 hPa | 2.29 mm | 0 m/s | - | - |
| 1778042875 | 7.22° C | 96% | 1011.8 hPa | 2.54 mm | 0 m/s | - | - |
| 1778042575 | 7.22° C | 95% | 1011.7 hPa | 2.79 mm | 0 m/s | - | - |
| 1778042275 | 7.78° C | 96% | 1011.5 hPa | 3.3 mm | 0 m/s | - | - |
| 1778041975 | 7.78° C | 96% | 1011.4 hPa | 3.3 mm | 0 m/s | - | - |
| 1778041675 | 7.78° C | 96% | 1011.2 hPa | 3.05 mm | 0 m/s | - | - |
| 1778041375 | 7.78° C | 96% | 1011.2 hPa | 3.56 mm | 0 m/s | - | - |
| 1778041075 | 7.78° C | 96% | 1011.1 hPa | 3.56 mm | 0 m/s | - | - |
| 1778040775 | 7.78° C | 96% | 1011.1 hPa | 3.3 mm | 0 m/s | - | - |
| 1778040475 | 7.78° C | 96% | 1011.3 hPa | 3.3 mm | 0 m/s | - | - |
| 1778040175 | 8.33° C | 96% | 1011.2 hPa | 3.3 mm | 0 m/s | - | - |
| 1778039875 | 8.33° C | 96% | 1011.3 hPa | 3.3 mm | 0 m/s | - | - |
| 1778039575 | 8.33° C | 96% | 1011.3 hPa | 3.56 mm | 0 m/s | - | - |
| 1778039275 | 8.33° C | 96% | 1011.4 hPa | 3.56 mm | 0 m/s | - | - |
| 1778038975 | 8.33° C | 96% | 1011.4 hPa | 3.56 mm | 0 m/s | - | - |
| 1778038675 | 8.33° C | 96% | 1011.3 hPa | 3.56 mm | 0 m/s | - | - |
| 1778038375 | 8.33° C | 96% | 1011.2 hPa | 3.56 mm | 0 m/s | - | - |
| 1778038075 | 8.33° C | 96% | 1011.2 hPa | 3.81 mm | 0 m/s | - | - |
| 1778037775 | 8.89° C | 96% | 1011.1 hPa | 3.3 mm | 0 m/s | - | - |
* Rain latest hour (hover to see other rain measurements)
** Current wind speed in m/s (hover to see current wind gust speed)